GOSAT (IBUKI)

Last updated on Fri Jul 11 2025 00:02:27 GMT+0000 (Coordinated Universal Time)

1 33492U 09002A 25191.27442970 .00000000 00000+0 83575-5 0 9997 2 33492 98.0659 302.1569 0001870 79.5604 280.5812 14.67550415881318
UTC large
Height (km)
Speed (km/s)
/
Latitude / Longitude
Inclination (degrees)
Orbital Period (minutes)
Azimuth
Elevation
Range (km)
Doppler Factor

Next 0 passes for location: London (51.5072 / 0.1276)

Sorry there are no passes over London.